Date String (YYYY-MM-DD hh:mm:ss) UTC,Instrument flags,Ambient pressure (hPa),Sample flow (lpm),Bypass flow (lpm),Sample temperature (°C),Ambient temperature (°C),ASC tube jacket temperature (°C),LED temperature (°C),Box temperature (°C),Sample RH (%),Span deviation,Mass concentration (μg/m³),Mass concentration (μg/m³),Mass concentration (μg/m³)
DateTimeUTC,F1_M11,P_M11,Q1_M11,Q2_M11,T1_M11,T2_M11,T3_M11,T4_M11,T5_M11,U1_M11,ZSPAN_M11,X0_M11,X2_M11,X1_M11
2022-01-07 22:00:00,,0812.0,5.01,0.00,27.3,26.5,00.0,36.3,29.1,07.0,0000.0,0001.98,0000.44,0000.33
2022-01-07 22:01:00,,0812.0,4.99,0.00,27.3,26.5,00.0,36.3,29.2,07.6,0000.0,0001.92,0000.39,0000.28
2022-01-07 22:02:00,,0812.1,5.02,0.00,27.3,26.5,00.0,36.3,29.2,07.7,0000.0,0001.64,0000.33,0000.23
2022-01-07 22:03:00,,0811.8,5.00,0.00,27.3,26.5,00.0,36.3,29.2,07.2,0000.0,0000.40,0000.24,0000.15
2022-01-07 22:04:00,,0811.9,5.00,0.00,27.3,26.5,00.0,36.2,29.1,07.1,0000.0,0000.38,0000.21,0000.12
2022-01-07 22:05:00,,0812.0,5.01,0.00,27.3,26.5,00.0,36.3,29.1,07.4,0000.0,0000.33,0000.19,0000.12
2022-01-07 22:06:00,,0811.9,5.00,0.00,27.3,26.5,00.0,36.3,29.1,07.5,0000.0,0000.32,0000.19,0000.11
2022-01-07 22:07:00,,0811.9,5.00,0.00,27.3,26.4,00.0,36.3,29.1,07.5,0000.0,0000.28,0000.17,0000.11
2022-01-07 22:08:00,,0812.0,5.00,0.00,27.3,26.4,00.0,36.2,29.1,07.7,0000.0,0000.26,0000.16,0000.11
2022-01-07 22:09:00,,0812.2,5.00,0.00,27.3,26.4,00.0,36.2,29.0,07.7,0000.0,0000.27,0000.17,0000.11
2022-01-07 22:10:00,,0812.1,4.99,0.00,27.2,26.4,00.0,36.2,29.0,07.7,0000.0,0000.31,0000.19,0000.13
2022-01-07 22:11:00,,0812.2,5.01,0.00,27.2,26.4,00.0,36.2,28.9,07.4,0000.0,0000.32,0000.20,0000.13
2022-01-07 22:12:00,,0812.1,5.00,0.00,27.2,26.4,00.0,36.2,28.9,07.4,0000.0,0000.30,0000.19,0000.14
2022-01-07 22:13:00,,0812.1,5.01,0.00,27.2,26.4,00.0,36.2,28.9,07.6,0000.0,0000.32,0000.20,0000.14
2022-01-07 22:14:00,,0812.1,5.01,0.00,27.2,26.4,00.0,36.2,28.9,07.5,0000.0,0000.37,0000.23,0000.16
2022-01-07 22:15:00,,0812.2,5.00,0.00,27.2,26.4,00.0,36.2,28.9,07.4,0000.0,0000.32,0000.22,0000.16
2022-01-07 22:16:00,,0812.2,4.99,0.00,27.2,26.4,00.0,36.2,28.9,07.7,0000.0,0000.33,0000.23,0000.17
2022-01-07 22:17:00,,0812.2,4.99,0.00,27.2,26.4,00.0,36.2,28.9,06.9,0000.0,0000.36,0000.25,0000.19
2022-01-07 22:18:00,,0812.1,5.01,0.00,27.2,26.4,00.0,36.2,28.9,07.0,0000.0,0000.41,0000.27,0000.21
2022-01-07 22:19:00,,0812.2,4.99,0.00,27.2,26.4,00.0,36.2,28.9,06.9,0000.0,0000.44,0000.30,0000.23
2022-01-07 22:20:00,,0812.2,5.01,0.00,27.2,26.4,00.0,36.2,28.9,07.4,0000.0,0000.45,0000.31,0000.24
2022-01-07 22:21:00,,0812.1,4.99,0.00,27.2,26.4,00.0,36.2,28.9,07.1,0000.0,0000.45,0000.31,0000.24
2022-01-07 22:22:00,,0812.2,5.02,0.00,27.2,26.5,00.0,36.2,28.9,07.0,0000.0,0000.42,0000.29,0000.24
2022-01-07 22:23:00,,0812.2,4.99,0.00,27.2,26.5,00.0,36.2,28.9,07.0,0000.0,0000.42,0000.29,0000.24
2022-01-07 22:24:00,,0812.1,5.00,0.00,27.2,26.5,00.0,36.2,29.0,07.0,0000.0,0000.42,0000.28,0000.23
2022-01-07 22:25:00,,0812.1,5.01,0.00,27.3,26.5,00.0,36.2,29.0,06.8,0000.0,0000.39,0000.27,0000.23
2022-01-07 22:26:00,,0812.1,4.99,0.00,27.3,26.5,00.0,36.2,29.0,07.0,0000.0,0000.39,0000.27,0000.23
2022-01-07 22:27:00,,0812.1,5.01,0.00,27.3,26.6,00.0,36.2,29.1,07.1,0000.0,0000.43,0000.28,0000.23
2022-01-07 22:28:00,,0812.1,4.99,0.00,27.3,26.6,00.0,36.2,29.1,07.2,0000.0,0000.45,0000.29,0000.23
2022-01-07 22:29:00,,0812.1,4.98,0.00,27.3,26.6,00.0,36.3,29.2,07.4,0000.0,0000.44,0000.28,0000.22
2022-01-07 22:30:00,,0812.1,5.02,0.00,27.4,26.7,00.0,36.3,29.2,07.5,0000.0,0000.45,0000.27,0000.20
2022-01-07 22:31:00,,0812.2,4.99,0.00,27.4,26.7,00.0,36.3,29.2,07.8,0000.0,0000.45,0000.26,0000.18
2022-01-07 22:32:00,,0812.1,5.00,0.00,27.4,26.7,00.0,36.3,29.2,07.7,0000.0,0000.46,0000.26,0000.18
2022-01-07 22:33:00,,0812.2,5.00,0.00,27.4,26.7,00.0,36.3,29.2,07.8,0000.0,0000.57,0000.27,0000.17
2022-01-07 22:34:00,,0812.3,5.02,0.00,27.4,26.8,00.0,36.3,29.2,07.1,0000.0,0000.64,0000.28,0000.18
2022-01-07 22:35:00,,0812.2,4.99,0.00,27.4,26.8,00.0,36.3,29.2,07.1,0000.0,0000.64,0000.28,0000.18
2022-01-07 22:36:00,,0812.1,5.00,0.00,27.5,26.8,00.0,36.3,29.3,07.0,0000.0,0000.68,0000.30,0000.18
2022-01-07 22:37:00,,0812.1,5.00,0.00,27.5,26.8,00.0,36.4,29.3,06.8,0000.0,0000.70,0000.32,0000.18
2022-01-07 22:38:00,,0812.1,5.00,0.00,27.5,26.8,00.0,36.4,29.3,06.8,0000.0,0000.67,0000.31,0000.18
2022-01-07 22:39:00,,0812.1,5.01,0.00,27.5,26.9,00.0,36.4,29.4,06.9,0000.0,0000.64,0000.31,0000.18
2022-01-07 22:40:00,,0812.2,5.00,0.00,27.5,26.9,00.0,36.4,29.4,07.1,0000.0,0000.64,0000.31,0000.19
2022-01-07 22:41:00,,0812.3,5.00,0.00,27.6,26.9,00.0,36.4,29.4,07.1,0000.0,0000.60,0000.30,0000.19
2022-01-07 22:42:00,,0812.3,4.99,0.00,27.6,26.9,00.0,36.4,29.4,07.4,0000.0,0000.58,0000.29,0000.19
2022-01-07 22:43:00,,0812.3,5.00,0.00,27.6,27.0,00.0,36.5,29.4,07.5,0000.0,0000.59,0000.28,0000.19
2022-01-07 22:44:00,,0812.3,5.02,0.00,27.6,27.0,00.0,36.5,29.4,07.1,0000.0,0000.57,0000.29,0000.19
2022-01-07 22:45:00,,0812.2,5.00,0.00,27.6,27.0,00.0,36.5,29.4,07.0,0000.0,0000.52,0000.28,0000.19
2022-01-07 22:46:00,,0812.0,5.00,0.00,27.6,27.0,00.0,36.5,29.5,07.1,0000.0,0000.51,0000.28,0000.18
2022-01-07 22:47:00,,0811.7,5.00,0.00,27.7,27.0,00.0,36.5,29.5,07.2,0000.0,0000.50,0000.27,0000.18
2022-01-07 22:48:00,,0811.8,5.00,0.00,27.7,27.0,00.0,36.5,29.5,07.1,0000.0,0000.49,0000.26,0000.17
2022-01-07 22:49:00,,0811.9,4.99,0.00,27.7,27.0,00.0,36.5,29.5,06.8,0000.0,0000.51,0000.26,0000.16
2022-01-07 22:50:00,,0811.8,4.99,0.00,27.7,27.0,00.0,36.6,29.4,06.9,0000.0,0000.53,0000.26,0000.16
2022-01-07 22:51:00,,0811.9,5.01,0.00,27.7,27.0,00.0,36.6,29.4,06.9,0000.0,0000.54,0000.26,0000.15
2022-01-07 22:52:00,,0812.0,4.98,0.00,27.6,27.0,00.0,36.6,29.4,06.9,0000.0,0000.54,0000.26,0000.15
2022-01-07 22:53:00,,0812.0,5.01,0.00,27.6,27.0,00.0,36.6,29.4,06.8,0000.0,0000.53,0000.25,0000.15
2022-01-07 22:54:00,,0812.0,5.00,0.00,27.6,27.0,00.0,36.6,29.4,06.9,0000.0,0000.50,0000.25,0000.16
2022-01-07 22:55:00,,0812.0,4.99,0.00,27.6,27.0,00.0,36.6,29.5,06.7,0000.0,0000.48,0000.28,0000.16
2022-01-07 22:56:00,,0812.0,5.00,0.00,27.7,27.0,00.0,36.6,29.4,06.9,0000.0,0000.50,0000.28,0000.15
2022-01-07 22:57:00,,0812.0,5.00,0.00,27.6,27.0,00.0,36.6,29.4,06.9,0000.0,0000.50,0000.28,0000.16
2022-01-07 22:58:00,,0812.0,5.01,0.00,27.6,27.0,00.0,36.6,29.4,06.9,0000.0,0000.46,0000.26,0000.16
2022-01-07 22:59:00,,0812.1,4.98,0.00,27.7,27.0,00.0,36.6,29.4,07.0,0000.0,0000.44,0000.26,0000.16
